Satellite: AAUSAT2
Catalog number: 32788
Epoch time:      12011.73068127
Element set:    0186
Inclination:      097.8239 deg
RA of node:       076.7606 deg
Eccentricity:    0.0014324
Arg of perigee:   212.0917 deg
Mean anomaly:     147.9431 deg
Mean motion:   14.83651674 rev/day
Decay rate:      1.997e-05 rev/day^2
Epoch rev:           20048
Checksum:              312

Satellite: DO-64
Catalog number: 32789
Epoch time:      12011.77832975
Element set:    0202
Inclination:      097.8334 deg
RA of node:       078.2952 deg
Eccentricity:    0.0014536
Arg of perigee:   210.5223 deg
Mean anomaly:     149.5123 deg
Mean motion:   14.84721083 rev/day
Decay rate:      3.206e-05 rev/day^2
Epoch rev:           20051
Checksum:              288

Satellite: CO-66
Catalog number: 32791
Epoch time:      12011.73084363
Element set:    0190
Inclination:      097.8242 deg
RA of node:       076.3111 deg
Eccentricity:    0.0015154
Arg of perigee:   211.8104 deg
Mean anomaly:     148.2197 deg
Mean motion:   14.82911047 rev/day
Decay rate:      1.585e-05 rev/day^2
Epoch rev:           20040
Checksum:              270

Satellite: RS-30
Catalog number: 32953
Epoch time:      12012.74007024
Element set:     428
Inclination:      082.5015 deg
RA of node:       032.4268 deg
Eccentricity:    0.0017711
Arg of perigee:   291.2318 deg
Mean anomaly:     068.6878 deg
Mean motion:   12.43019797 rev/day
Decay rate:        1.0e-07 rev/day^2
Epoch rev:           16512
Checksum:              271

Satellite: TACSAT-3
Catalog number: 35001
Epoch time:      12012.87985260
Element set:     827
Inclination:      040.4510 deg
RA of node:       326.9842 deg
Eccentricity:    0.0007052
Arg of perigee:   263.3841 deg
Mean anomaly:     096.6151 deg
Mean motion:   15.68286607 rev/day
Decay rate:     7.5619e-04 rev/day^2
Epoch rev:           14974
Checksum:              307

Satellite: PHARMSAT
Catalog number: 35002
Epoch time:      12011.96587443
Element set:    0765
Inclination:      040.4684 deg
RA of node:       334.5901 deg
Eccentricity:    0.0009507
Arg of perigee:   331.0137 deg
Mean anomaly:     029.0142 deg
Mean motion:   15.62065784 rev/day
Decay rate:     4.4455e-04 rev/day^2
Epoch rev:           14958
Checksum:              287

Satellite: HAWKSAT1
Catalog number: 35003
Epoch time:      11276.79285837
Element set:     811
Inclination:      040.4398 deg
RA of node:       174.3672 deg
Eccentricity:    0.0011414
Arg of perigee:   274.3918 deg
Mean anomaly:     085.3844 deg
Mean motion:   16.13812532 rev/day
Decay rate:   2.274821e-02 rev/day^2
Epoch rev:           13457
Checksum:              306

Satellite: CP6
Catalog number: 35004
Epoch time:      11247.64656856
Element set:     784
Inclination:      040.4403 deg
RA of node:       342.9642 deg
Eccentricity:    0.0002956
Arg of perigee:   038.0069 deg
Mean anomaly:     322.2231 deg
Mean motion:   16.41039951 rev/day
Decay rate:  1.6152067e-01 rev/day^2
Epoch rev:           13013
Checksum:              285

Satellite: METEOR-M
Catalog number: 35865
Epoch time:      12012.78652884
Element set:      59
Inclination:      098.6788 deg
RA of node:       069.8807 deg
Eccentricity:    0.0002859
Arg of perigee:   131.5564 deg
Mean anomaly:     228.5849 deg
Mean motion:   14.21853399 rev/day
Decay rate:       -1.0e-07 rev/day^2
Epoch rev:           12037
Checksum:              337

Satellite: RS-38
Catalog number: 35869
Epoch time:      12012.26709719
Element set:      55
Inclination:      098.6757 deg
RA of node:       069.3883 deg
Eccentricity:    0.0004965
Arg of perigee:   138.2123 deg
Mean anomaly:     221.9434 deg
Mean motion:   14.22049251 rev/day
Decay rate:        4.0e-07 rev/day^2
Epoch rev:           12031
Checksum:              299

Satellite: ARISSAT1
Catalog number: 37772
Epoch time:      12004.04884568
Element set:     479
Inclination:      051.6129 deg
RA of node:       213.1240 deg
Eccentricity:    0.0007478
Arg of perigee:   255.9283 deg
Mean anomaly:     104.1611 deg
Mean motion:   16.41716225 rev/day
Decay rate:  1.3494171e-01 rev/day^2
Epoch rev:            2407
Checksum:              290

Satellite: JUGNU
Catalog number: 37839
Epoch time:      12011.86669271
Element set:      66
Inclination:      019.9626 deg
RA of node:       231.2779 deg
Eccentricity:    0.0018680
Arg of perigee:   290.9170 deg
Mean anomaly:     068.9196 deg
Mean motion:   14.12016756 rev/day
Decay rate:       6.19e-06 rev/day^2
Epoch rev:            1298
Checksum:              324

Satellite: SRMSAT
Catalog number: 37841
Epoch time:      12012.62750331
Element set:      67
Inclination:      019.9716 deg
RA of node:       228.4835 deg
Eccentricity:    0.0012518
Arg of perigee:   271.3421 deg
Mean anomaly:     088.5586 deg
Mean motion:   14.10107447 rev/day
Decay rate:       2.64e-06 rev/day^2
Epoch rev:            1306
Checksum:              271

Satellite: RAX-2
Catalog number: 37853
Epoch time:      12011.92979228
Element set:    0076
Inclination:      101.7086 deg
RA of node:       340.7456 deg
Eccentricity:    0.0252085
Arg of perigee:   078.6825 deg
Mean anomaly:     284.2579 deg
Mean motion:   14.78414789 rev/day
Decay rate:      4.281e-05 rev/day^2
Epoch rev:           01115
Checksum:              326

Satellite: AUBIESAT
Catalog number: 37854
Epoch time:      12012.52805919
Element set:      70
Inclination:      101.7109 deg
RA of node:       341.6782 deg
Eccentricity:    0.0253938
Arg of perigee:   076.7292 deg
Mean anomaly:     286.2081 deg
Mean motion:   14.78658672 rev/day
Decay rate:      4.412e-05 rev/day^2
Epoch rev:            1122
Checksum:              298

Satellite: HRBE
Catalog number: 37855
Epoch time:      12012.86844270
Element set:      69
Inclination:      101.7122 deg
RA of node:       342.1677 deg
Eccentricity:    0.0254121
Arg of perigee:   075.5333 deg
Mean anomaly:     287.3914 deg
Mean motion:   14.78602770 rev/day
Decay rate:      4.305e-05 rev/day^2
Epoch rev:            1127
Checksum:              280

/EX


More information about the Keps mailing list